Date,TemperatureHighF,TemperatureAvgF,TemperatureLowF,DewpointHighF,DewpointAvgF,DewpointLowF,HumidityHigh,HumidityAvg,HumidityLow,PressureMaxIn,PressureMinIn,WindSpeedMaxMPH,WindSpeedAvgMPH,GustSpeedMaxMPH,PrecipitationSumIn
2013-3-1,37,24,15,32,19,10,95,82,64,29.85,29.29,1,0,1,0.03
2013-3-2,38,22,11,32,17,5,93,82,56,30.02,29.85,3,0,3,0.00
2013-3-3,42,28,16,16,11,-58,81,49,1,30.37,30.02,5,1,5,0.21
2013-3-4,45,31,18,20,13,5,59,48,27,30.41,30.22,2,0,2,0.00
2013-3-5,40,28,16,21,15,8,76,58,45,30.22,29.90,3,0,3,0.00
2013-3-6,44,28,16,22,15,9,77,61,39,29.90,29.75,2,0,2,0.00
2013-3-7,41,34,24,23,17,12,67,49,32,29.77,29.47,4,2,4,0.00
2013-3-8,48,38,33,28,26,22,75,61,44,29.68,29.48,6,2,6,0.00
2013-3-9,45,37,32,32,24,21,96,59,41,30.01,29.68,2,1,2,0.00
2013-3-10,38,32,27,37,32,26,99,98,92,30.13,30.01,2,0,2,0.03
2013-3-11,41,28,18,36,22,7,99,80,40,30.25,30.13,5,1,5,0.09
2013-3-12,33,27,24,9,-1,-5,43,30,20,30.17,30.04,10,6,10,0.00
2013-3-13,29,23,16,-7,-13,-18,22,19,18,29.82,29.71,7,5,7,0.00
2013-3-14,28,19,13,-1,-8,-17,35,29,22,29.80,29.68,6,4,6,0.00
2013-3-15,32,22,16,-3,-9,-14,33,25,20,29.77,29.64,5,3,5,0.00
2013-3-16,34,19,8,6,-7,-14,51,30,23,30.00,29.74,3,1,3,0.00
2013-3-17,34,13,-5,10,-3,-16,63,49,30,30.08,29.96,3,1,3,0.00
2013-3-18,33,12,-6,9,-3,-16,67,51,32,29.96,29.78,4,0,4,0.00
2013-3-19,33,15,1,3,-5,-14,70,43,22,29.83,29.77,3,2,3,0.00
2013-3-20,30,11,-7,-3,-11,-21,54,37,22,29.89,29.77,3,1,3,0.00
2013-3-21,33,14,-4,6,-6,-17,56,40,24,30.14,29.88,3,1,3,0.00
2013-3-22,22,21,21,12,8,2,69,57,41,30.04,30.01,2,1,2,0.00
2013-3-24,33,28,23,20,18,14,84,68,56,29.67,29.47,2,1,4468732975487905890309638486753280,0.00
2013-3-25,26,18,-2,19,10,-12,85,69,52,29.60,29.32,3,1,3,0.00
2013-3-26,29,3,-15,3,-12,-25,68,51,29,30.09,29.60,3,1,222,0.00
2013-3-27,33,6,-19,5,-10,-30,64,49,30,30.20,30.09,3,1,3,0.00
2013-3-28,40,24,11,27,10,-1,66,55,33,30.12,29.86,3,1,3,0.06
2013-3-29,45,34,24,28,20,12,68,55,45,29.87,29.79,3,1,3,0.12
2013-3-30,52,35,23,33,24,17,99,67,38,30.16,29.88,3,1,3,0.03
2013-3-31,52,34,23,43,29,18,99,84,52,30.20,30.02,4,1,4,0.00